#timestamp,LO_Frequency,Hit,StdDev 
1671850835.9,286046999.7,N
1671850855.7,286046999.4,P
1671850875.6,286046999.1,P
1671850895.4,286046999.3,N
1671850915.3,286046996.7,Y
1671850935.1,286046995.0,P
1671850936.0,286046995.0,N
1671850955.8,286046995.1,N
1671850975.7,286046997.2,N
1671850995.5,286046997.5,N
1671851015.4,286046998.7,N
1671851035.2,286046996.7,N
1671851055.0,286046999.2,N
1671851055.9,286046999.2,N
1671851075.8,286046998.8,N
1671851095.6,286046998.7,N
1671851115.5,286046998.5,N
1671851135.3,286046996.5,N
1671851155.2,286046999.2,N
1671851175.9,286046997.0,N
1671851195.7,286046997.7,N
1671851215.6,286046997.6,N
1671851235.4,286046996.6,N
1671851255.2,286046998.8,N
1671851275.1,286046999.4,N
1671851276.0,286046999.4,N
1671851295.8,286046998.1,N
1671851315.7,286046998.7,N
1671851335.5,286047001.0,N
1671851355.3,286047001.0,N
1671851375.2,286046999.1,N
1671851395.9,286046996.8,N
1671851415.7,286046997.7,N
1671851435.6,286046997.6,N
1671851455.4,286046993.8,Y
1671851475.3,286046997.7,P
1671851495.1,286046999.5,P
1671851496.0,286046999.5,N
1671851515.8,286046997.7,N
1671851535.7,286046995.1,Y
1671851555.5,286046997.8,P
1671851575.4,286046996.6,P
1671851595.2,286047000.5,N
1671851615.0,286047000.5,N
1671851615.9,286047000.5,N
1671851635.8,286047002.7,N
1671851655.6,286047002.2,N
1671851675.5,286047002.8,N
1671851695.3,286047002.1,N
1671851715.1,286047005.5,N
1671851735.9,286046999.8,N
1671851755.7,286047000.1,N
1671851775.6,286046999.8,N
1671851795.4,286047001.8,N
1671851815.2,286046998.4,N
1671851835.1,286047000.6,N
1671851836.0,286047000.6,N
1671851855.8,286047002.6,N
1671851875.6,286046999.7,N
1671851895.5,286047002.6,N
1671851915.3,286047001.5,N
1671851935.2,286047004.0,N
1671851955.9,286047004.2,N
1671851975.7,286047003.8,N
1671851995.6,286047001.5,N
1671852015.4,286047002.6,N
1671852035.2,286047002.3,N
1671852055.1,286047002.4,N
1671852056.0,286047002.4,N
1671852075.8,286047001.4,N
1671852095.7,286047002.8,N
1671852115.5,286047002.8,N
1671852135.3,286047002.8,N
1671852155.2,286047002.4,N
1671852175.0,286047002.6,N
1671852175.9,286047002.6,N
1671852195.8,286047002.4,N
1671852215.6,286047002.5,N
1671852235.4,286047002.4,N
1671852255.3,286047002.7,N
1671852275.1,286046999.7,N
1671852295.8,286046999.7,N
1671852315.7,286047002.2,N
1671852335.5,286047000.1,N
1671852355.4,286046998.5,N
1671852375.2,286047000.4,N
1671852395.0,286046998.1,N
1671852395.9,286046998.1,N
1671852415.8,286047000.9,N
1671852435.6,286047004.0,N
1671852455.5,286047001.4,N
1671852475.3,286047001.8,N
1671852495.1,286047004.0,N
1671852515.9,286047003.1,N
1671852535.7,286047005.6,Y
1671852555.6,286047002.4,P
1671852575.4,286047002.4,P
1671852595.2,286047002.5,P
1671852615.1,286047002.6,Y
1671852616.0,286047002.6,P
1671852635.8,286047001.2,P
1671852655.7,286047000.8,N
1671852675.5,286047000.9,N
1671852695.3,286046998.6,N
1671852715.2,286046999.6,N
1671852735.0,286046999.3,N
1671852735.9,286046999.3,N
1671852755.8,286046998.8,N
1671852775.6,286046998.9,N
1671852795.4,286046999.3,N
1671852815.3,286046996.6,N
1671852835.1,286046997.4,N
1671852855.8,286046997.4,N
1671852875.7,286046997.0,N
1671852895.5,286046997.6,N
1671852915.4,286046995.6,N
1671852935.2,286046997.7,N
1671852955.0,286046995.4,N
1671852955.9,286046995.4,N
1671852975.8,286046994.9,N
1671852995.6,286046995.3,N
1671853015.5,286046997.1,N
1671853035.3,286046996.6,N
1671853055.1,286046996.6,N
1671853075.9,286046997.6,N
1671853095.7,286046997.8,N
1671853115.5,286046999.6,N
1671853135.4,286046999.0,N
1671853155.2,286046999.1,N
1671853175.1,286046999.4,N
1671853176.0,286046999.4,N
1671853195.8,286046996.5,N
1671853215.6,286046997.1,N
1671853235.5,286046999.6,N
1671853255.3,286046999.6,N
1671853275.1,286046996.7,N
1671853295.9,286046999.0,N
1671853315.7,286046998.6,N
1671853335.6,286046999.2,N
1671853355.4,286046997.3,N
1671853375.3,286046998.0,N
1671853395.1,286046998.0,N
1671853396.0,286046998.0,N
1671853415.8,286046997.6,N
1671853435.7,286046995.0,Y
1671853455.5,286047000.6,P
1671853475.3,286047000.4,N
1671853495.2,286047000.2,N
1671853515.0,286047000.3,N
1671853515.9,286047000.3,N
1671853535.8,286047000.0,N
1671853555.6,286046999.7,N
1671853575.4,286047000.3,N
1671853595.3,286047001.0,N
1671853615.1,286046998.4,N
1671853635.9,286047000.8,N
1671853655.7,286047000.5,N
1671853675.5,286047001.0,N
1671853695.4,286047000.7,N
1671853715.2,286047000.3,N
1671853735.1,286046999.8,N
1671853736.0,286046999.8,N
1671853755.8,286047000.3,N
1671853775.6,286046999.9,N
1671853795.5,286047000.2,N
1671853815.3,286046998.4,N
1671853835.2,286046998.3,N
1671853855.0,286046998.5,N
1671853855.9,286046998.5,N
1671853875.8,286046998.6,N
1671853895.6,286046998.2,N
1671853915.4,286047001.2,N
1671853935.3,286046998.2,N
1671853955.1,286046997.7,N
1671853975.9,286046993.6,Y
1671853995.7,286046999.5,P
1671854015.5,286046998.7,P
1671854035.4,286046998.6,P
1671854055.2,286046999.4,N
1671854075.1,286046998.4,Y
1671854076.0,286046998.4,P
1671854095.8,286046998.2,P
1671854115.6,286046998.7,P
1671854135.5,286047002.4,Y
1671854155.3,286047001.9,P
1671854175.2,286047002.4,N
1671854195.9,286047000.3,N
1671854215.7,286047000.3,N
1671854235.6,286047002.8,N
1671854255.4,286047000.4,N
1671854275.2,286047001.0,N
1671854295.1,286046999.7,N
1671854296.0,286046999.7,N
1671854315.8,286047011.9,Y
1671854335.7,286046998.9,P
1671854355.5,286047000.3,N
1671854375.3,286047000.9,N
1671854395.2,286047002.2,N
